STARLINK-37234

Last updated on Sun Apr 12 2026 00:02:09 GMT+0000 (Coordinated Universal Time)

1 68535U 26068AD 26101.50002315 .00046518 00000+0 23815-3 0 9990 2 68535 53.1597 344.6510 0000726 86.2353 154.7993 15.80854842 3088
UTC large
Height (km)
Speed (km/s)
/
Latitude / Longitude
Inclination (degrees)
Orbital Period (minutes)
Azimuth
Elevation
Range (km)
Doppler Factor

Next 0 passes for location: London (51.5072 / 0.1276)

Sorry there are no passes over London.
STARLINK-37234